Tracking 29892 objects as of 21-Nov-2024
HD Live streaming from Space Station
objects crossing your sky now

SL-12 DEB

Track SL-12 DEB now!
10-day predictions


NORAD ID: 44984
Int'l Code: 2006-062U
Perigee: 665.8 km
Apogee: 18,869.0 km
Inclination: 63.9 °
Period: 340.1 minutes
Semi major axis: 16138 km
RCS: Unknown
Launch date: December 25, 2006
Source: Commonwealth of Independent States (former USSR) (CIS)
Launch site: TYURATAM MISSILE AND SPACE COMPLEX (TTMTR)

Note: This is SATELLITE DEBRIS
Your satellite tracking list
Your tracking list is empty




NASA's NSSDC Master Catalog

Two Line Element Set (TLE):
1 44984U 06062U   24325.20752560  .00000178  00000-0  16426-2 0  9993
2 44984  63.8896 208.8206 5639724 340.2451   4.7090  4.23459634 78209
Source of the keplerian elements: AFSPC